Bowling Green, KY

3:55 PM CDT on March 27, 2017 (GMT -0500)
Bowling Green-Warren County Regional

Weather History for KBWG - June, 2012

Change the Weather History Date:

Saturday, June 2, 2012

  Actual Average Record
Temperature  
Mean Temperature 62 °F 71 °F  
Max Temperature 76 °F 83 °F 99 °F (1921)
Min Temperature 48 °F 60 °F 43 °F (1889)
Degree Days  
Heating Degree Days 3 1  
Month to date heating degree days 7 2  
Since 1 June heating degree days 7 2  
Since 1 July heating degree days 2962 4045  
Cooling Degree Days 0 7  
Month to date cooling degree days 0 14  
Year to date cooling degree days 379 167  
Since 1 June cooling degree days 0 14  
Growing Degree Days 10 (Base 50)    
Moisture  
Dew Point 49 °F    
Average Humidity 66    
Maximum Humidity 93    
Minimum Humidity 38    
Precipitation  
Precipitation 0.00 in 0.15 in 1.82 in (1985)
Month to date precipitation 0.14 0.32  
Year to date precipitation 17.71 22.25  
Snow  
Snow 0.00 in 0.00 in 0.00 in ()
Month to date snowfall 0.0 0.0  
Since 1 June snowfall 0.0 0.0  
Since 1 July snowfall 1.4 9.1  
Snow Depth 0.00 in    
Sea Level Pressure  
Sea Level Pressure 29.94 in    
Wind  
Wind Speed 5 mph (SW)    
Max Wind Speed 16 mph    
Max Gust Speed 22 mph    
Visibility 10 miles    
Events      
T = Trace of Precipitation, MM = Missing Value Source: NWS Daily Summary

Daily Weather History Graph

Daily Weather History Graph

Search for Another Location

Airport or City:

Trip Planner

Search our weather history database for the weather conditions in past years. The results will help you decide how hot, cold, wet, or windy it might be!

Date:

Astronomy

Jun. 02, 2012 Rise Set
Actual Time 5:27 AM CDT 8:00 PM CDT
Civil Twilight 4:56 AM CDT 8:30 PM CDT
Nautical Twilight 4:19 AM CDT 9:08 PM CDT
Astronomical Twilight 3:37 AM CDT 9:50 PM CDT
Moon 6:16 PM CDT (6/2) 3:43 AM CDT (6/2)
Length of Visible Light 15h 34m
Length of Day
14h 33m
Waxing Gibbous, 95% of the Moon is Illuminated
Jun 2
Waxing Gibbous
Jun 4
Full
Jun 11
Last Quarter
Jun 19
New
Jun 26
First Quarter

Hourly Weather History & Observations

Time (CDT) Temp. Dew Point Humidity Pressure Visibility Wind Dir Wind Speed Gust Speed Precip Events Conditions
12:53 AM 53.1 °F 48.0 °F 83% 29.93 in 10.0 mi Calm Calm - N/A   Clear
1:53 AM 52.0 °F 46.9 °F 83% 29.93 in 10.0 mi Calm Calm - N/A   Clear
2:53 AM 52.0 °F 46.9 °F 83% 29.94 in 10.0 mi SW 3.5 mph - N/A   Clear
3:53 AM 51.1 °F 46.9 °F 86% 29.94 in 10.0 mi SW 3.5 mph - N/A   Clear
4:53 AM 50.0 °F 46.0 °F 86% 29.94 in 10.0 mi Calm Calm - N/A   Clear
5:53 AM 48.9 °F 46.0 °F 90% 29.96 in 8.0 mi Calm Calm - N/A   Clear
6:53 AM 54.0 °F 48.0 °F 80% 29.98 in 10.0 mi SW 3.5 mph - N/A   Clear
7:53 AM 57.9 °F 48.9 °F 72% 29.99 in 10.0 mi SW 4.6 mph - N/A   Clear
8:53 AM 64.9 °F 50.0 °F 58% 30.01 in 10.0 mi SW 5.8 mph - N/A   Clear
9:53 AM 68.0 °F 48.9 °F 50% 30.00 in 10.0 mi Variable 5.8 mph - N/A   Clear
10:53 AM 69.1 °F 46.9 °F 45% 29.99 in 10.0 mi West 8.1 mph - N/A   Partly Cloudy
11:53 AM 72.0 °F 46.0 °F 40% 29.98 in 10.0 mi WSW 11.5 mph 17.3 mph N/A   Scattered Clouds
12:53 PM 73.0 °F 46.9 °F 39% 29.96 in 10.0 mi WSW 10.4 mph - N/A   Mostly Cloudy
1:53 PM 71.1 °F 46.9 °F 42% 29.94 in 10.0 mi Variable 6.9 mph - N/A   Mostly Cloudy
2:53 PM 73.0 °F 46.9 °F 39% 29.92 in 10.0 mi SW 9.2 mph 20.7 mph N/A   Mostly Cloudy
3:53 PM 73.0 °F 48.0 °F 41% 29.90 in 10.0 mi SW 8.1 mph - N/A   Overcast
4:53 PM 73.0 °F 48.9 °F 42% 29.89 in 10.0 mi West 6.9 mph - N/A   Overcast
5:53 PM 73.0 °F 50.0 °F 44% 29.88 in 10.0 mi WNW 5.8 mph - N/A   Mostly Cloudy
6:53 PM 73.0 °F 50.0 °F 44% 29.88 in 10.0 mi SW 5.8 mph - N/A   Overcast
7:53 PM 72.0 °F 51.1 °F 48% 29.89 in 10.0 mi SW 4.6 mph - N/A   Mostly Cloudy
9:53 PM 66.9 °F 53.1 °F 61% 29.91 in 10.0 mi South 3.5 mph - N/A   Clear
10:53 PM 64.0 °F 53.1 °F 67% 29.92 in 10.0 mi South 4.6 mph - N/A   Clear
11:53 PM 64.9 °F 54.0 °F 68% 29.91 in 10.0 mi SSW 4.6 mph - N/A   Clear